Погода в Киржаче

Россия / Владимирская область     56°09′42″N   38°52′19″E
В апреле 2022 года жителям России запретили посещать сайт meteo.paraplan.net по решению Генеральной прокуратуры. Аудитория сайта уменьшилась в 10 раз. Владельцы сайта не видят смысла в поддержке погодного сервера в таких условиях. Сайт будет закрыт в октябре.
темп.,
°C
ветер,
м/с
пор.,
м/с
влажн.,
%
обл.,
%
осадки,
мм/ч
давл.,
гПа
погр.,
м
4 октября, вт
вт400:00+10ююв7158159 0.1 10051340
03:00+10ююв7158498 0.1 10061196
06:00+9ююв61484100 0.0 10071165
09:00+10ююв71578100 0.0 10081331
12:00+12ююв71662100 0.1 10082150
15:00+11ю61475100 0.9 10091649
18:00+8ююз3991100 1.4 1010553
21:00+8ююв41089100 3.1 1009929
5 октября, ср
ср500:00+7ю51087100 0.5 10091132
03:00+7ю4893100 2.2 10091131
06:00+7ююз4889100 0.9 1009694
09:00+6ююз3591100 1.6 1010917
12:00+6ююз2592100 0.6 1011479
15:00+7з368172 0.9 1012756
18:00+5з3690100 0.1 1014474
21:00+5з269396 0.3 1014697
6 октября, чт
чт600:00+6зсз369098 0.3 1015483
03:00+6зсз379149 0.7 1016515
06:00+5зсз269587 0.0 1017219
09:00+7зсз36877 0.1 1018374
12:00+10з34685 0.0 1018868
15:00+11зюз35616 0.0 10171023
18:00+7ююз25825 0.0 101881
21:00+9ююз3108775 0.0 1017406
7 октября, пт
пт700:00+9юз4119664 0.0 1016435
03:00+9юз4119783 0.0 1014388
06:00+10з41193100 0.1 1015664
09:00+11зсз5128115 0.1 1017856
12:00+10зсз51175100 0.0 10191234
15:00+11з51070100 0.1 10211454
18:00+10з410760 0.0 1022649
21:00+7зюз311910 0.0 1024378
8 октября, сб
сб800:00+6зюз39954 0.0 1024263
03:00+5юз28975 0.0 1024203
06:00+5юз399614 0.0 1024237
09:00+8юз498541 0.0 1024329
12:00+12юз486999 0.0 1023667
15:00+13юз486458 0.0 1021846
18:00+10ююз3117892 0.0 1020376
21:00+9ююз5148582 0.0 1019569